Webcam Zuidwest more information Webcam Zuidwest


Onweer radar more information blitzortung!


Regen radar more information rain snow radar


Weerstation Alkmaar Centrum

Weerstation Luyksgestel

Website Noardburgum


U vindt ons ook hier:

Het Weer Aktueel

UK Metoffice

European Weather Network

Weather Underground

AWEKAS

Citizen Weather Observer Program (CWOP)

HAMweather, WeatherForYou, PWS Weather



Het weer levert geen direct gevaar op.    Er zijn geen waarschuwingen afgegeven.
IFRIESLA82 History tables / reports. Script startWUhistory.php

Select another period ( hide this area )

Eenheden Periode Custom range Directly to
Metrisch Engels Beide
Dagelijkse Wekelijkse Maandelijkse Jaarlijkse
use both date-selectors for a custom range
previous Dag
With this date

WeatherUnderground graphs for this period ( click here ) Loading the graph can take up to a minute!


Dagelijkse Samenvatting Donderdag Jul 9 2020
Tijd Temp. ( °C ) Dew pt. ( °C ) Wind ( km/h ) van Windvlaag ( km/h ) Luchtdruk ( hPa ) Humid.( % ) Rainrate ( cm ) Zonneschijn ( W/m2 )
Hoog14,1 13,1 26,0 Oosten ( 1205/2296 ) 29,0 1014,9 95 4,32 339
Gemiddeld13,0 11,5 12,1 Oosten #96/190 15,9 1011,9 91 3,60 117 #124/190
Laag12,1 10,2 5,0   6,0 1009,8 80 -  
Dagelijkse Tabular details for Donderdag Jul 9 2020
Tijd Temp. ( °C ) Dew pt. ( °C ) Wind ( km/h ) van Windvlaag ( km/h ) Luchtdruk ( hPa ) Humid.( % ) Rainrate ( cm ) Zonneschijn ( W/m2 )
00:04 14,1 10,7 6,0 ONO 13,0 1014,9 80 - -
00:09 14,0 10,5 8,0 Oosten 10,0 1014,9 80 - -
00:14 14,0 10,6 6,0 ONO 8,0 1014,9 80 - -
00:19 14,1 10,7 6,0 ONO 8,0 1014,9 80 - -
00:24 14,0 10,6 6,0 ONO 8,0 1014,9 80 - -
00:29 13,9 10,5 10,0 ONO 11,0 1014,9 80 - -
00:34 13,9 10,5 10,0 Oosten 11,0 1014,9 80 - -
00:39 13,9 10,5 11,0 Oosten 11,0 1014,6 80 - -
00:44 13,9 10,5 6,0 ONO 10,0 1014,6 80 - -
00:49 13,8 10,4 8,0 ONO 13,0 1014,6 80 - -
00:54 13,8 10,4 10,0 ONO 11,0 1014,6 80 - -
00:59 13,8 10,4 10,0 ONO 13,0 1014,6 80 - -
01:04 13,8 10,4 6,0 ONO 11,0 1014,6 80 - -
01:09 13,8 10,4 5,0 ONO 10,0 1014,6 80 - -
01:14 13,8 10,4 10,0 ONO 11,0 1014,9 80 - -
01:19 13,8 10,4 8,0 ONO 11,0 1014,9 80 - -
01:24 13,8 10,4 6,0 ONO 6,0 1014,6 80 - -
01:29 13,8 10,4 8,0 ONO 10,0 1014,6 80 - -
01:34 13,7 10,3 6,0 ONO 11,0 1014,6 80 - -
01:39 13,7 10,5 11,0 Oosten 13,0 1014,6 81 - -
01:44 13,7 10,5 5,0 ONO 13,0 1014,6 81 - -
01:49 13,7 10,5 10,0 ONO 13,0 1014,6 81 - -
01:54 13,6 10,4 6,0 Oosten 13,0 1014,6 81 - -
01:59 13,6 10,4 6,0 Oosten 10,0 1014,6 81 - -
02:04 13,6 10,4 11,0 ONO 11,0 1014,6 81 - -
02:09 13,6 10,4 10,0 ONO 13,0 1014,6 81 - -
02:14 13,6 10,4 11,0 Oosten 11,0 1014,2 81 - -
02:19 13,6 10,4 14,0 ONO 15,0 1014,2 81 - -
02:24 13,6 10,4 6,0 ONO 15,0 1014,2 81 - -
02:29 13,6 10,4 6,0 ONO 10,0 1014,2 81 - -
02:34 13,6 10,4 8,0 ONO 11,0 1014,2 81 - -
02:39 13,5 10,3 10,0 ONO 11,0 1014,2 81 - -
02:44 13,5 10,3 8,0 ONO 13,0 1014,2 81 - -
02:49 13,4 10,2 8,0 ONO 13,0 1014,2 81 - -
02:54 13,4 10,4 11,0 Oosten 15,0 1013,9 82 - -
02:59 13,4 10,4 6,0 Oosten 10,0 1013,9 82 - -
03:04 13,3 10,3 10,0 ONO 15,0 1013,9 82 - -
03:09 13,3 10,3 6,0 Oosten 15,0 1013,9 82 - -
03:14 13,3 10,5 10,0 ONO 13,0 1013,6 83 - -
03:19 13,2 10,4 11,0 Oosten 11,0 1013,6 83 - -
03:24 13,3 10,6 8,0 Oosten 11,0 1013,6 84 - -
03:29 13,1 10,5 8,0 Oosten 11,0 1013,6 84 - -
03:34 13,1 10,5 8,0 Oosten 13,0 1013,6 85 - -
03:39 12,9 10,5 8,0 ONO 13,0 1013,6 86 0,25 -
03:44 12,8 10,5 10,0 ONO 15,0 1013,6 86 0,25 -
03:49 12,7 10,6 8,0 Oosten 15,0 1013,6 87 0,25 -
03:54 12,7 10,6 8,0 ONO 11,0 1013,6 87 0,25 -
03:59 12,6 10,7 6,0 ONO 11,0 1013,2 88 0,51 -
04:04 12,6 10,7 5,0 ONO 11,0 1013,2 88 0,51 -
04:09 12,4 10,6 10,0 ONO 10,0 1013,2 89 0,51 -
04:14 12,4 10,6 6,0 Oosten 10,0 1013,2 89 0,51 -
04:19 12,4 10,6 10,0 ONO 10,0 1013,2 89 0,51 -
04:24 12,3 10,7 6,0 Oosten 8,0 1013,2 90 0,76 -
04:29 12,2 10,6 8,0 Oosten 13,0 1013,2 90 0,76 -
04:34 12,2 10,6 11,0 Oosten 15,0 1013,2 90 0,76 -
04:39 12,2 10,6 10,0 Oosten 15,0 1012,9 90 0,76 -
04:44 12,2 10,6 11,0 Oosten 15,0 1012,9 90 0,76 -
04:49 12,2 10,6 10,0 Oosten 15,0 1012,9 90 0,76 -
04:54 12,2 10,6 8,0 Oosten 15,0 1012,9 90 0,76 -
04:59 12,1 10,5 11,0 OZO 13,0 1012,9 90 0,51 -
05:04 12,1 10,5 10,0 ONO 13,0 1012,9 90 0,51 -
05:09 12,1 10,7 10,0 Oosten 13,0 1012,9 91 0,51 -
05:14 12,1 10,7 10,0 OZO 13,0 1012,5 91 0,51 -
05:19 12,1 10,7 8,0 Oosten 13,0 1012,5 91 0,51 -
05:24 12,1 10,7 6,0 ONO 10,0 1012,5 91 0,51 -
05:29 12,1 10,7 6,0 Oosten 13,0 1012,5 91 0,25 -
05:34 12,1 10,7 11,0 Oosten 11,0 1012,5 91 0,25 5
05:39 12,1 10,7 10,0 Oosten 11,0 1012,5 91 0,25 5
05:44 12,1 10,7 13,0 Oosten 13,0 1012,5 91 0,25 5
05:49 12,1 10,7 11,0 Oosten 13,0 1012,5 91 - 5
05:54 12,1 10,7 8,0 Oosten 13,0 1012,2 91 - 5
05:59 12,1 10,7 10,0 Oosten 13,0 1012,5 91 - 5
06:04 12,1 10,7 11,0 Oosten 13,0 1012,5 91 - 12
06:09 12,1 10,8 11,0 Oosten 13,0 1012,2 92 0,25 14
06:14 12,2 10,9 10,0 Oosten 11,0 1012,2 92 0,25 16
06:19 12,2 10,9 11,0 Oosten 15,0 1012,2 92 0,25 18
06:24 12,1 10,8 11,0 Oosten 13,0 1011,9 92 0,51 18
06:29 12,1 10,8 15,0 ONO 15,0 1011,9 92 0,51 21
06:34 12,2 10,9 13,0 ONO 15,0 1011,9 92 0,51 16
06:39 12,2 11,1 11,0 Oosten 11,0 1012,2 93 0,76 9
06:44 12,1 11,0 11,0 ONO 13,0 1012,2 93 1,27 9
06:49 12,1 11,0 10,0 Oosten 13,0 1011,9 93 1,78 16
06:54 12,1 11,0 13,0 Oosten 16,0 1011,9 93 2,29 18
06:59 12,1 11,0 11,0 ONO 13,0 1011,9 93 3,05 21
07:04 12,1 11,0 13,0 ONO 16,0 1011,9 93 3,30 32
07:09 12,1 11,0 13,0 ONO 15,0 1011,9 93 3,81 33
07:14 12,1 11,0 11,0 Oosten 18,0 1011,5 93 4,06 30
07:19 12,1 11,0 11,0 Oosten 15,0 1011,2 93 4,32 25
07:24 12,1 11,0 11,0 Oosten 13,0 1011,2 93 4,32 25
07:29 12,1 11,2 13,0 Oosten 16,0 1011,2 94 4,32 32
07:34 12,1 11,2 13,0 Oosten 15,0 1011,2 94 4,32 35
07:39 12,2 11,3 13,0 Oosten 15,0 1011,2 94 4,06 26
07:44 12,2 11,3 16,0 Oosten 18,0 1011,2 94 3,81 40
07:49 12,2 11,3 13,0 Oosten 16,0 1010,8 94 3,30 47
07:54 12,2 11,3 16,0 Oosten 21,0 1010,8 94 3,05 44
07:59 12,2 11,3 14,0 Oosten 21,0 1010,8 94 2,54 35
08:04 12,2 11,3 14,0 Oosten 15,0 1010,8 94 2,29 32
08:09 12,2 11,3 13,0 Oosten 18,0 1010,8 94 2,03 33
08:14 12,2 11,3 14,0 Oosten 16,0 1010,8 94 1,78 28
08:19 12,2 11,3 13,0 Oosten 21,0 1010,5 94 1,52 30
08:24 12,3 11,4 8,0 Oosten 19,0 1010,5 94 1,52 30
08:29 12,3 11,4 16,0 Oosten 18,0 1010,5 94 1,52 33
08:34 12,3 11,4 13,0 Oosten 18,0 1010,5 94 1,52 33
08:39 12,3 11,4 13,0 Oosten 15,0 1010,5 94 1,78 30
08:44 12,3 11,4 13,0 Oosten 16,0 1010,2 94 1,78 30
08:49 12,4 11,6 14,0 Oosten 18,0 1010,5 95 1,78 35
08:54 12,4 11,6 11,0 OZO 16,0 1010,5 95 1,52 44
08:59 12,5 11,7 16,0 Oosten 18,0 1010,5 95 1,52 54
09:04 12,6 11,8 16,0 OZO 18,0 1010,2 95 1,52 74
09:09 12,6 11,8 16,0 OZO 19,0 1010,2 95 1,52 77
09:14 12,7 11,9 11,0 Oosten 19,0 1010,2 95 1,78 54
09:19 12,7 11,9 8,0 ONO 15,0 1010,5 95 1,52 42
09:24 12,7 11,9 8,0 Oosten 15,0 1010,5 95 1,52 33
09:29 12,8 12,0 10,0 ONO 15,0 1010,5 95 1,78 53
09:34 12,8 12,0 14,0 OZO 16,0 1010,5 95 2,29 54
09:39 12,8 12,0 13,0 Oosten 16,0 1010,5 95 2,29 62
09:44 12,8 12,0 13,0 Oosten 18,0 1010,5 95 2,79 72
09:49 12,8 12,0 14,0 Oosten 18,0 1010,5 95 3,05 90
09:54 12,8 12,0 20,0 ONO 21,0 1010,2 95 3,30 95
09:59 12,8 12,0 18,0 Oosten 21,0 1010,2 95 3,30 95
10:04 12,9 12,1 18,0 ONO 19,0 1010,2 95 3,56 84
10:09 12,9 12,1 14,0 Oosten 21,0 1010,2 95 3,56 91
10:14 12,9 12,1 13,0 ONO 21,0 1010,2 95 3,56 88
10:19 12,9 12,1 11,0 ONO 15,0 1010,2 95 3,56 70
10:24 12,9 12,1 8,0 ONO 18,0 1010,2 95 3,81 62
10:29 12,9 12,1 14,0 Oosten 18,0 1010,2 95 3,81 69
10:34 13,0 12,2 8,0 ONO 15,0 1010,2 95 3,81 70
10:39 12,9 12,1 11,0 ONO 18,0 1010,2 95 3,56 60
10:44 12,9 12,1 14,0 ONO 15,0 1010,2 95 3,30 70
10:49 13,1 12,3 14,0 Oosten 16,0 1010,2 95 3,30 70
10:54 13,1 12,3 13,0 NO 16,0 1010,5 95 3,30 70
10:59 12,8 12,0 8,0 NNO 16,0 1010,2 95 3,30 76
11:04 12,8 12,0 5,0 Oosten 16,0 1010,5 95 3,30 93
11:09 12,8 12,0 10,0 NO 15,0 1010,5 95 3,30 102
11:14 12,9 12,1 11,0 ONO 16,0 1010,5 95 3,30 97
11:19 12,9 12,1 13,0 ONO 16,0 1010,5 95 3,30 90
11:24 12,9 12,1 11,0 Oosten 16,0 1010,5 95 3,05 127
11:29 13,0 12,2 11,0 ONO 16,0 1010,5 95 2,79 135
11:34 13,1 12,3 14,0 NO 16,0 1010,5 95 2,54 128
11:39 13,2 12,4 18,0 ONO 19,0 1010,5 95 2,54 179
11:44 13,3 12,5 13,0 ONO 18,0 1010,5 95 2,29 251
11:49 13,5 12,7 21,0 Oosten 21,0 1010,2 95 2,29 264
11:54 13,6 12,8 21,0 Oosten 21,0 1010,2 95 2,03 241
11:59 13,4 12,6 23,0 ONO 23,0 1010,2 95 2,03 218
12:04 13,4 12,6 16,0 ONO 21,0 1010,2 95 2,03 230
12:09 13,6 12,8 21,0 ONO 24,0 1010,2 95 1,78 244
12:14 13,6 12,8 16,0 Oosten 21,0 1010,2 95 1,52 221
12:19 13,4 12,6 14,0 ONO 24,0 1010,2 95 1,27 192
12:24 13,5 12,7 13,0 ONO 24,0 1010,2 95 1,27 246
12:29 13,7 12,9 21,0 ONO 23,0 1010,2 95 1,27 288
12:34 13,6 12,8 23,0 Oosten 26,0 1010,2 95 1,52 339
12:39 13,7 12,9 23,0 Oosten 26,0 1010,2 95 1,27 302
12:44 13,7 12,9 26,0 Oosten 26,0 1009,8 95 1,27 195
12:49 13,7 12,9 11,0 NO 26,0 1010,2 95 1,27 141
12:54 13,7 12,9 20,0 ONO 19,0 1010,2 95 1,02 167
12:59 13,6 12,8 21,0 ONO 26,0 1010,5 95 1,02 163
13:04 13,5 12,7 18,0 Oosten 21,0 1010,2 95 1,02 204
13:09 13,6 12,8 13,0 ONO 21,0 1010,2 95 1,27 148
13:14 13,6 12,8 14,0 Oosten 19,0 1010,5 95 1,52 148
13:19 13,6 12,8 20,0 Oosten 21,0 1010,5 95 1,78 151
13:24 13,6 12,8 13,0 ONO 21,0 1010,5 95 2,03 202
13:29 13,6 12,8 13,0 ONO 18,0 1010,5 95 2,29 218
13:34 13,7 12,9 18,0 Oosten 24,0 1010,5 95 2,29 172
13:39 13,6 12,8 16,0 ONO 18,0 1010,5 95 2,79 204
13:44 13,5 12,7 18,0 ONO 21,0 1010,5 95 2,79 211
13:49 13,5 12,7 20,0 ONO 23,0 1010,5 95 2,79 183
13:54 13,6 12,8 18,0 ONO 23,0 1010,5 95 2,79 209
13:59 13,7 12,9 18,0 Oosten 19,0 1010,5 95 2,79 200
14:04 13,7 12,9 13,0 Oosten 19,0 1010,5 95 2,54 236
14:09 13,7 12,9 13,0 Oosten 16,0 1010,5 95 2,54 246
14:14 13,8 13,0 14,0 ONO 16,0 1010,5 95 2,29 246
14:19 13,9 13,1 13,0 ONO 15,0 1010,8 95 2,29 220
14:24 13,8 13,0 16,0 ONO 21,0 1010,8 95 2,03 155
14:29 13,8 12,9 24,0 Oosten 24,0 1010,8 95 1,78 213
14:34 13,7 12,9 16,0 ONO 21,0 1010,8 95 1,52 192
14:39 13,6 12,8 20,0 ONO 29,0 1010,8 95 1,52 297
14:44 13,7 12,8 18,0 Oosten 21,0 1010,8 94 1,02 290
14:49 13,8 13,0 11,0 ONO 18,0 1010,8 95 0,76 214
14:54 13,8 13,0 16,0 Oosten 18,0 1010,8 95 0,76 207
14:59 13,7 12,8 13,0 Oosten 21,0 1010,8 94 0,76 290
15:04 13,8 12,9 20,0 Oosten 21,0 1010,8 94 0,76 223
15:09 13,7 12,8 16,0 Oosten 21,0 1010,8 94 0,76 274
15:14 13,9 12,9 14,0 Oosten 21,0 1010,8 94 0,76 299
15:19 14,1 13,1 11,0 ONO 21,0 1010,8 94 0,51 229
15:24 14,0 13,0 14,0 Oosten 16,0 1010,8 94 0,51 202
15:29 13,9 12,9 14,0 ONO 18,0 1010,8 94 0,51 160
15:34 13,8 12,9 11,0 Oosten 18,0 1010,8 94 0,51 199
15:39 13,8 12,9 14,0 Oosten 18,0 1010,8 94 0,51 165
15:44 13,9 12,9 13,0 ONO 16,0 1010,8 94 0,51 151
15:49 13,9 12,9 14,0 Oosten 15,0 1010,8 94 0,51 186
Dagelijkse Samenvatting Donderdag Jul 9 2020
Tijd Temp. ( °C ) Dew pt. ( °C ) Wind ( km/h ) van Windvlaag ( km/h ) Luchtdruk ( hPa ) Humid.( % ) Rainrate ( cm ) Zonneschijn ( W/m2 )
Hoog14,1 13,1 26,0 Oosten ( 1205/2296 ) 29,0 1014,9 95 4,32 339
Gemiddeld13,0 11,5 12,1 Oosten #96/190 15,9 1011,9 91 3,60 117 #124/190
Laag12,1 10,2 5,0   6,0 1009,8 80 -  
Dagelijkse Tabular details for Donderdag Jul 9 2020
Tijd Temp. ( °C ) Dew pt. ( °C ) Wind ( km/h ) van Windvlaag ( km/h ) Luchtdruk ( hPa ) Humid.( % ) Rainrate ( cm ) Zonneschijn ( W/m2 )
00:04 14,1 10,7 6,0 ONO 13,0 1014,9 80 - -
00:09 14,0 10,5 8,0 Oosten 10,0 1014,9 80 - -
00:14 14,0 10,6 6,0 ONO 8,0 1014,9 80 - -
00:19 14,1 10,7 6,0 ONO 8,0 1014,9 80 - -
00:24 14,0 10,6 6,0 ONO 8,0 1014,9 80 - -
00:29 13,9 10,5 10,0 ONO 11,0 1014,9 80 - -
00:34 13,9 10,5 10,0 Oosten 11,0 1014,9 80 - -
00:39 13,9 10,5 11,0 Oosten 11,0 1014,6 80 - -
00:44 13,9 10,5 6,0 ONO 10,0 1014,6 80 - -
00:49 13,8 10,4 8,0 ONO 13,0 1014,6 80 - -
00:54 13,8 10,4 10,0 ONO 11,0 1014,6 80 - -
00:59 13,8 10,4 10,0 ONO 13,0 1014,6 80 - -
01:04 13,8 10,4 6,0 ONO 11,0 1014,6 80 - -
01:09 13,8 10,4 5,0 ONO 10,0 1014,6 80 - -
01:14 13,8 10,4 10,0 ONO 11,0 1014,9 80 - -
01:19 13,8 10,4 8,0 ONO 11,0 1014,9 80 - -
01:24 13,8 10,4 6,0 ONO 6,0 1014,6 80 - -
01:29 13,8 10,4 8,0 ONO 10,0 1014,6 80 - -
01:34 13,7 10,3 6,0 ONO 11,0 1014,6 80 - -
01:39 13,7 10,5 11,0 Oosten 13,0 1014,6 81 - -
01:44 13,7 10,5 5,0 ONO 13,0 1014,6 81 - -
01:49 13,7 10,5 10,0 ONO 13,0 1014,6 81 - -
01:54 13,6 10,4 6,0 Oosten 13,0 1014,6 81 - -
01:59 13,6 10,4 6,0 Oosten 10,0 1014,6 81 - -
02:04 13,6 10,4 11,0 ONO 11,0 1014,6 81 - -
02:09 13,6 10,4 10,0 ONO 13,0 1014,6 81 - -
02:14 13,6 10,4 11,0 Oosten 11,0 1014,2 81 - -
02:19 13,6 10,4 14,0 ONO 15,0 1014,2 81 - -
02:24 13,6 10,4 6,0 ONO 15,0 1014,2 81 - -
02:29 13,6 10,4 6,0 ONO 10,0 1014,2 81 - -
02:34 13,6 10,4 8,0 ONO 11,0 1014,2 81 - -
02:39 13,5 10,3 10,0 ONO 11,0 1014,2 81 - -
02:44 13,5 10,3 8,0 ONO 13,0 1014,2 81 - -
02:49 13,4 10,2 8,0 ONO 13,0 1014,2 81 - -
02:54 13,4 10,4 11,0 Oosten 15,0 1013,9 82 - -
02:59 13,4 10,4 6,0 Oosten 10,0 1013,9 82 - -
03:04 13,3 10,3 10,0 ONO 15,0 1013,9 82 - -
03:09 13,3 10,3 6,0 Oosten 15,0 1013,9 82 - -
03:14 13,3 10,5 10,0 ONO 13,0 1013,6 83 - -
03:19 13,2 10,4 11,0 Oosten 11,0 1013,6 83 - -
03:24 13,3 10,6 8,0 Oosten 11,0 1013,6 84 - -
03:29 13,1 10,5 8,0 Oosten 11,0 1013,6 84 - -
03:34 13,1 10,5 8,0 Oosten 13,0 1013,6 85 - -
03:39 12,9 10,5 8,0 ONO 13,0 1013,6 86 0,25 -
03:44 12,8 10,5 10,0 ONO 15,0 1013,6 86 0,25 -
03:49 12,7 10,6 8,0 Oosten 15,0 1013,6 87 0,25 -
03:54 12,7 10,6 8,0 ONO 11,0 1013,6 87 0,25 -
03:59 12,6 10,7 6,0 ONO 11,0 1013,2 88 0,51 -
04:04 12,6 10,7 5,0 ONO 11,0 1013,2 88 0,51 -
04:09 12,4 10,6 10,0 ONO 10,0 1013,2 89 0,51 -
04:14 12,4 10,6 6,0 Oosten 10,0 1013,2 89 0,51 -
04:19 12,4 10,6 10,0 ONO 10,0 1013,2 89 0,51 -
04:24 12,3 10,7 6,0 Oosten 8,0 1013,2 90 0,76 -
04:29 12,2 10,6 8,0 Oosten 13,0 1013,2 90 0,76 -
04:34 12,2 10,6 11,0 Oosten 15,0 1013,2 90 0,76 -
04:39 12,2 10,6 10,0 Oosten 15,0 1012,9 90 0,76 -
04:44 12,2 10,6 11,0 Oosten 15,0 1012,9 90 0,76 -
04:49 12,2 10,6 10,0 Oosten 15,0 1012,9 90 0,76 -
04:54 12,2 10,6 8,0 Oosten 15,0 1012,9 90 0,76 -
04:59 12,1 10,5 11,0 OZO 13,0 1012,9 90 0,51 -
05:04 12,1 10,5 10,0 ONO 13,0 1012,9 90 0,51 -
05:09 12,1 10,7 10,0 Oosten 13,0 1012,9 91 0,51 -
05:14 12,1 10,7 10,0 OZO 13,0 1012,5 91 0,51 -
05:19 12,1 10,7 8,0 Oosten 13,0 1012,5 91 0,51 -
05:24 12,1 10,7 6,0 ONO 10,0 1012,5 91 0,51 -
05:29 12,1 10,7 6,0 Oosten 13,0 1012,5 91 0,25 -
05:34 12,1 10,7 11,0 Oosten 11,0 1012,5 91 0,25 5
05:39 12,1 10,7 10,0 Oosten 11,0 1012,5 91 0,25 5
05:44 12,1 10,7 13,0 Oosten 13,0 1012,5 91 0,25 5
05:49 12,1 10,7 11,0 Oosten 13,0 1012,5 91 - 5
05:54 12,1 10,7 8,0 Oosten 13,0 1012,2 91 - 5
05:59 12,1 10,7 10,0 Oosten 13,0 1012,5 91 - 5
06:04 12,1 10,7 11,0 Oosten 13,0 1012,5 91 - 12
06:09 12,1 10,8 11,0 Oosten 13,0 1012,2 92 0,25 14
06:14 12,2 10,9 10,0 Oosten 11,0 1012,2 92 0,25 16
06:19 12,2 10,9 11,0 Oosten 15,0 1012,2 92 0,25 18
06:24 12,1 10,8 11,0 Oosten 13,0 1011,9 92 0,51 18
06:29 12,1 10,8 15,0 ONO 15,0 1011,9 92 0,51 21
06:34 12,2 10,9 13,0 ONO 15,0 1011,9 92 0,51 16
06:39 12,2 11,1 11,0 Oosten 11,0 1012,2 93 0,76 9
06:44 12,1 11,0 11,0 ONO 13,0 1012,2 93 1,27 9
06:49 12,1 11,0 10,0 Oosten 13,0 1011,9 93 1,78 16
06:54 12,1 11,0 13,0 Oosten 16,0 1011,9 93 2,29 18
06:59 12,1 11,0 11,0 ONO 13,0 1011,9 93 3,05 21
07:04 12,1 11,0 13,0 ONO 16,0 1011,9 93 3,30 32
07:09 12,1 11,0 13,0 ONO 15,0 1011,9 93 3,81 33
07:14 12,1 11,0 11,0 Oosten 18,0 1011,5 93 4,06 30
07:19 12,1 11,0 11,0 Oosten 15,0 1011,2 93 4,32 25
07:24 12,1 11,0 11,0 Oosten 13,0 1011,2 93 4,32 25
07:29 12,1 11,2 13,0 Oosten 16,0 1011,2 94 4,32 32
07:34 12,1 11,2 13,0 Oosten 15,0 1011,2 94 4,32 35
07:39 12,2 11,3 13,0 Oosten 15,0 1011,2 94 4,06 26
07:44 12,2 11,3 16,0 Oosten 18,0 1011,2 94 3,81 40
07:49 12,2 11,3 13,0 Oosten 16,0 1010,8 94 3,30 47
07:54 12,2 11,3 16,0 Oosten 21,0 1010,8 94 3,05 44
07:59 12,2 11,3 14,0 Oosten 21,0 1010,8 94 2,54 35
08:04 12,2 11,3 14,0 Oosten 15,0 1010,8 94 2,29 32
08:09 12,2 11,3 13,0 Oosten 18,0 1010,8 94 2,03 33
08:14 12,2 11,3 14,0 Oosten 16,0 1010,8 94 1,78 28
08:19 12,2 11,3 13,0 Oosten 21,0 1010,5 94 1,52 30
08:24 12,3 11,4 8,0 Oosten 19,0 1010,5 94 1,52 30
08:29 12,3 11,4 16,0 Oosten 18,0 1010,5 94 1,52 33
08:34 12,3 11,4 13,0 Oosten 18,0 1010,5 94 1,52 33
08:39 12,3 11,4 13,0 Oosten 15,0 1010,5 94 1,78 30
08:44 12,3 11,4 13,0 Oosten 16,0 1010,2 94 1,78 30
08:49 12,4 11,6 14,0 Oosten 18,0 1010,5 95 1,78 35
08:54 12,4 11,6 11,0 OZO 16,0 1010,5 95 1,52 44
08:59 12,5 11,7 16,0 Oosten 18,0 1010,5 95 1,52 54
09:04 12,6 11,8 16,0 OZO 18,0 1010,2 95 1,52 74
09:09 12,6 11,8 16,0 OZO 19,0 1010,2 95 1,52 77
09:14 12,7 11,9 11,0 Oosten 19,0 1010,2 95 1,78 54
09:19 12,7 11,9 8,0 ONO 15,0 1010,5 95 1,52 42
09:24 12,7 11,9 8,0 Oosten 15,0 1010,5 95 1,52 33
09:29 12,8 12,0 10,0 ONO 15,0 1010,5 95 1,78 53
09:34 12,8 12,0 14,0 OZO 16,0 1010,5 95 2,29 54
09:39 12,8 12,0 13,0 Oosten 16,0 1010,5 95 2,29 62
09:44 12,8 12,0 13,0 Oosten 18,0 1010,5 95 2,79 72
09:49 12,8 12,0 14,0 Oosten 18,0 1010,5 95 3,05 90
09:54 12,8 12,0 20,0 ONO 21,0 1010,2 95 3,30 95
09:59 12,8 12,0 18,0 Oosten 21,0 1010,2 95 3,30 95
10:04 12,9 12,1 18,0 ONO 19,0 1010,2 95 3,56 84
10:09 12,9 12,1 14,0 Oosten 21,0 1010,2 95 3,56 91
10:14 12,9 12,1 13,0 ONO 21,0 1010,2 95 3,56 88
10:19 12,9 12,1 11,0 ONO 15,0 1010,2 95 3,56 70
10:24 12,9 12,1 8,0 ONO 18,0 1010,2 95 3,81 62
10:29 12,9 12,1 14,0 Oosten 18,0 1010,2 95 3,81 69
10:34 13,0 12,2 8,0 ONO 15,0 1010,2 95 3,81 70
10:39 12,9 12,1 11,0 ONO 18,0 1010,2 95 3,56 60
10:44 12,9 12,1 14,0 ONO 15,0 1010,2 95 3,30 70
10:49 13,1 12,3 14,0 Oosten 16,0 1010,2 95 3,30 70
10:54 13,1 12,3 13,0 NO 16,0 1010,5 95 3,30 70
10:59 12,8 12,0 8,0 NNO 16,0 1010,2 95 3,30 76
11:04 12,8 12,0 5,0 Oosten 16,0 1010,5 95 3,30 93
11:09 12,8 12,0 10,0 NO 15,0 1010,5 95 3,30 102
11:14 12,9 12,1 11,0 ONO 16,0 1010,5 95 3,30 97
11:19 12,9 12,1 13,0 ONO 16,0 1010,5 95 3,30 90
11:24 12,9 12,1 11,0 Oosten 16,0 1010,5 95 3,05 127
11:29 13,0 12,2 11,0 ONO 16,0 1010,5 95 2,79 135
11:34 13,1 12,3 14,0 NO 16,0 1010,5 95 2,54 128
11:39 13,2 12,4 18,0 ONO 19,0 1010,5 95 2,54 179
11:44 13,3 12,5 13,0 ONO 18,0 1010,5 95 2,29 251
11:49 13,5 12,7 21,0 Oosten 21,0 1010,2 95 2,29 264
11:54 13,6 12,8 21,0 Oosten 21,0 1010,2 95 2,03 241
11:59 13,4 12,6 23,0 ONO 23,0 1010,2 95 2,03 218
12:04 13,4 12,6 16,0 ONO 21,0 1010,2 95 2,03 230
12:09 13,6 12,8 21,0 ONO 24,0 1010,2 95 1,78 244
12:14 13,6 12,8 16,0 Oosten 21,0 1010,2 95 1,52 221
12:19 13,4 12,6 14,0 ONO 24,0 1010,2 95 1,27 192
12:24 13,5 12,7 13,0 ONO 24,0 1010,2 95 1,27 246
12:29 13,7 12,9 21,0 ONO 23,0 1010,2 95 1,27 288
12:34 13,6 12,8 23,0 Oosten 26,0 1010,2 95 1,52 339
12:39 13,7 12,9 23,0 Oosten 26,0 1010,2 95 1,27 302
12:44 13,7 12,9 26,0 Oosten 26,0 1009,8 95 1,27 195
12:49 13,7 12,9 11,0 NO 26,0 1010,2 95 1,27 141
12:54 13,7 12,9 20,0 ONO 19,0 1010,2 95 1,02 167
12:59 13,6 12,8 21,0 ONO 26,0 1010,5 95 1,02 163
13:04 13,5 12,7 18,0 Oosten 21,0 1010,2 95 1,02 204
13:09 13,6 12,8 13,0 ONO 21,0 1010,2 95 1,27 148
13:14 13,6 12,8 14,0 Oosten 19,0 1010,5 95 1,52 148
13:19 13,6 12,8 20,0 Oosten 21,0 1010,5 95 1,78 151
13:24 13,6 12,8 13,0 ONO 21,0 1010,5 95 2,03 202
13:29 13,6 12,8 13,0 ONO 18,0 1010,5 95 2,29 218
13:34 13,7 12,9 18,0 Oosten 24,0 1010,5 95 2,29 172
13:39 13,6 12,8 16,0 ONO 18,0 1010,5 95 2,79 204
13:44 13,5 12,7 18,0 ONO 21,0 1010,5 95 2,79 211
13:49 13,5 12,7 20,0 ONO 23,0 1010,5 95 2,79 183
13:54 13,6 12,8 18,0 ONO 23,0 1010,5 95 2,79 209
13:59 13,7 12,9 18,0 Oosten 19,0 1010,5 95 2,79 200
14:04 13,7 12,9 13,0 Oosten 19,0 1010,5 95 2,54 236
14:09 13,7 12,9 13,0 Oosten 16,0 1010,5 95 2,54 246
14:14 13,8 13,0 14,0 ONO 16,0 1010,5 95 2,29 246
14:19 13,9 13,1 13,0 ONO 15,0 1010,8 95 2,29 220
14:24 13,8 13,0 16,0 ONO 21,0 1010,8 95 2,03 155
14:29 13,8 12,9 24,0 Oosten 24,0 1010,8 95 1,78 213
14:34 13,7 12,9 16,0 ONO 21,0 1010,8 95 1,52 192
14:39 13,6 12,8 20,0 ONO 29,0 1010,8 95 1,52 297
14:44 13,7 12,8 18,0 Oosten 21,0 1010,8 94 1,02 290
14:49 13,8 13,0 11,0 ONO 18,0 1010,8 95 0,76 214
14:54 13,8 13,0 16,0 Oosten 18,0 1010,8 95 0,76 207
14:59 13,7 12,8 13,0 Oosten 21,0 1010,8 94 0,76 290
15:04 13,8 12,9 20,0 Oosten 21,0 1010,8 94 0,76 223
15:09 13,7 12,8 16,0 Oosten 21,0 1010,8 94 0,76 274
15:14 13,9 12,9 14,0 Oosten 21,0 1010,8 94 0,76 299
15:19 14,1 13,1 11,0 ONO 21,0 1010,8 94 0,51 229
15:24 14,0 13,0 14,0 Oosten 16,0 1010,8 94 0,51 202
15:29 13,9 12,9 14,0 ONO 18,0 1010,8 94 0,51 160
15:34 13,8 12,9 11,0 Oosten 18,0 1010,8 94 0,51 199
15:39 13,8 12,9 14,0 Oosten 18,0 1010,8 94 0,51 165
15:44 13,9 12,9 13,0 ONO 16,0 1010,8 94 0,51 151
15:49 13,9 12,9 14,0 Oosten 15,0 1010,8 94 0,51 186

Download your copy of this data-set  here

Our weather-data as stored at Weather Underground. Script ontwikkeld door Jim McMurry. Rewritten for template use Leuven-Template

Apparatuur in gebruik:

Weerstation
Davis Vantage pro 2

Weerprogramma
Meteobridge

Weercomputer
TP-Link TL-WR703N

Webleverancier
Versio

Davis Vantage pro 2

Meteobridge

TP-Link TL-WR703N

Versio